loading
|
Showing default

HAWK-2A, 47505

Orbit data source: Space-Track

HAWK-2A, 47505 is a payload satellite owned by HawkEye 360 (US) in SSO that was launched on Sun, 24 Jan 2021 UTC via an FALCON 9 launch vehicle from the Air Force Eastern Test Range (AFETR). Payloads include a variety of satellites, spacecraft, and rockets equipped with specific instruments for various scientific and technological missions. These include communications satellites like Starlink; space stations such as the ISS; scientific satellites like the Hubble; Earth observation satellites from companies like Planet Labs, Umbra, and HawkEye 360; GPS; miniature CubeSats for education and research; and military/defense satellites.

Loading next visibility...
Next conjunction unknown
Loading greatness...
HAWK-2A details
Identifier
47505, 2021-006CW
Orbit
SSO
Last TLE update23 hours ago
Origin
Flag of USHawkEye 360 (US)
ManufacturerUTIAS-SFL
MissionOperational Commercial Sigint
Bus & MotorDEFIANT, Unknown motor
Mass31 kg wet, 30 kg dry
Launch date (UTC)
2021-01-24 (4 years ago)
Launch vehicle
FALCON 9
Launch site
Air Force Eastern Test Range (AFETR)
Object type
Payload
Rocket body
Debris
Shape & HBRBox + 2 Pan, 1 m
Radar Cross Section0.348 m², Medium (>0.1 m² and < 1m²)

Expand to show TLE details & history

TLE from 23 hours ago
0 HAWK-2A
1 47505U 21006CW  24287.70266059  .00018201  00000-0  77697-3 0  9999
2 47505  97.3241 334.7203 0007358 216.1804 143.8936 15.22922141206030
Epoch: 2024-10-13T16:51Z
Definitive object data (Epoch: 2024-10-13T16:51:49.874Z)
Latitude-0.00006°
Longitude59.02215°
Altitude504.218 km
Speed7.61 km/s
True Right ascension22h 18m 52s
True Declination0° 00' 00"
Sunlit
Object was in full shadow at TLE epoch
Predictive object data (real-time)
Latitude64.33483°
Longitude-104.63342°
Altitude508.76 km
Speed7.615 km/s
Apparent Right ascension20h 13m 25s
Apparent Declination41° 51' 56"
Sunlit
Object is in daylight
Predictive observer data (real-time)
Local Sidereal Time10:00:47
Azimuth19.719° NNE
Elevation-4.669°
Doppler factor1
Orbital elements
Apogee499.047 km
Perigee488.934 km
Semi-major axis6,872.127 km
Eccentricity0.0007358
Inclination97.3241°
RAAN334.7203°
Arg. of periapsis216.1804°
True anomaly143.94325°
Mean anomaly143.8936°
Eccentric anomaly143.91843°
Mean motion3.80984 °/min
BSTAR0.00077697
Period94.49 mins
No data available

HAWK-2A Visibility forecast

Observer location: 39.9160978°, -105.1181434

Span
Click to sort rows by Start time (UTC) header in descending order
Start Az.
Max El. time (UTC)
Max El. Az.
Max El.
End time (UTC)
End Az.
5 mins2024-10-14 15:30:36.115Z39.747° NE2024-10-14 15:33:36.115Z99.904° ESE23.523°2024-10-14 15:35:36.115Z143.968° SSE
5 mins2024-10-15 03:41:36.115Z195.341° SSW2024-10-15 03:43:36.115Z253.366° W36.005°2024-10-15 03:46:36.115Z332.367° NNW